sat.trackr.live / text

‹ back to catalog

INTELSAT 28 (IS-28)

NORAD 37392 · 2011-016A

PAYLOAD ACTIVE UNKNOWN

§ Identity

Operator
Country
ITSO
Launch date
2011-04-22
Launch site
FRGUI
Launch vehicle
Mass (kg)
RCS (m²)
25.12

Purposes: comms

External: N2YO · Heavens-Above · Gunter

§ Orbital elements

Epoch: 2026-05-25T05:17:54.146112Z

Period
1,436.11 min
Inclination
1.7491°
Eccentricity
0.0003893
Mean motion
1.00270673 rev/d
Perigee alt
35,770.5 km
Apogee alt
35,803.3 km
Semi-major
42,165.0 km
B*
0.0000e+0
RAAN
82.8900°
Arg perigee
342.8789°
Mean anomaly
224.8061°
Rev number
5,305

§ Raw data

INTELSAT 28 (IS-28)1 37392U 11016A   26145.22076558 -.00000226  00000+0  00000+0 0  99952 37392   1.7491  82.8900 0003893 342.8789 224.8061  1.00270673 53051

JSON: /api/v1/satellites/37392 · /tle

For live sub-satellite position, see the globe view (requires WebGL).

§ Visibility from observer

Set your observer location to see the next 7 days of passes ≥ 10°. The values pass through the URL so the page stays shareable.

No JS? Fill the form by hand. The geolocation button needs JavaScript.